Voltar ao catálogo

THOR ABLESTAR DEB

AtivoLEO
NORAD 3748·DEBRIS·🇺🇸 United States

Lançado Jun 29, 1961 de Cape Canaveral Space Force Station

Loading…

Próximas Passagens (próximas 24 horas)

TLE

AtualizadoSource: Space-Track

Época: Sep 14, 2026, 06:06 UTC

1 03748U 61015JD  26257.25456679  .00000353  00000-0  97630-3 0  9990
2 03748  67.7460 335.4377 0532654 220.0028 170.4664 12.80185790705220

Acompanhe THOR ABLESTAR DEB em tempo real com AllMySat

Download on the App Store